CW0962 Weather Reports


time (UTC)temp
C
wind
direction
speed
KPH
gust
KPH
rain 1hr
cm
rain 24hr
cm
rain mn
cm
humidity
%
barometer
mb
20260506093006 14 199 11.3 33.8 0.00 0.00 0.00 82 1010.2
20260506092502 15 201 11.3 24.1 0.00 0.00 0.00 82 1010.3
20260506091504 15 129 12.9 32.2 0.00 0.00 0.00 82 1010.2
20260506090502 15 183 12.9 32.2 0.00 0.00 0.00 82 1010.3
20260506090025 15 128 11.3 24.1 0.00 0.00 0.00 82 1010.3
20260506084505 15 153 11.3 25.7 0.00 0.00 0.00 82 1010.2
20260506084004 15 155 12.9 30.6 0.00 0.00 0.00 82 1010.3
20260506083006 15 178 12.9 25.7 0.00 0.00 0.00 82 1010.3
20260506082001 15 198 12.9 33.8 0.00 0.00 0.00 82 1010.4
20260506081503 15 209 14.5 38.6 0.00 0.00 0.00 82 1010.4
20260506081001 14 171 12.9 38.6 0.00 0.00 0.00 82 1010.3
20260506080509 15 159 12.9 38.6 0.00 0.00 0.00 81 1010.3
20260506073458 15 187 12.9 38.6 0.00 0.00 0.00 80 1010.3
20260506073012 15 168 16.1 46.7 0.00 0.00 0.00 79 1010.3
20260506072002 15 194 12.9 46.7 0.00 0.00 0.00 79 1010.3
20260506070517 15 164 12.9 40.2 0.00 0.00 0.00 79 1010.3
20260506062504 15 223 12.9 35.4 0.00 0.00 0.00 78 1010.0
20260506062006 15 147 14.5 37.0 0.00 0.00 0.00 78 1010.1
20260506061511 15 182 14.5 37.0 0.00 0.00 0.00 78 1010.2
20260506061002 15 107 12.9 41.8 0.00 0.00 0.00 78 1010.2
20260506060459 15 176 12.9 41.8 0.00 0.00 0.00 77 1010.2
20260506051001 15 249 12.9 35.4 0.00 0.00 0.00 76 1010.6
20260506045000 15 227 12.9 29.0 0.00 0.00 0.00 76 1010.9
20260506044501 15 204 11.3 29.0 0.00 0.00 0.00 76 1010.8
20260506044024 15 190 12.9 25.7 0.00 0.00 0.00 76 1010.7
20260506043509 15 167 12.9 29.0 0.00 0.00 0.00 76 1010.8
20260506043025 15 153 12.9 35.4 0.00 0.00 0.00 76 1010.8
20260506042001 15 279 14.5 30.6 0.00 0.00 0.00 76 1010.7
20260506041459 15 296 12.9 33.8 0.00 0.00 0.00 76 1010.8
20260506041002 15 215 11.3 33.8 0.00 0.00 0.00 76 1010.7
20260506040006 15 192 14.5 43.5 0.00 0.00 0.00 76 1010.7
20260506035528 15 169 12.9 32.2 0.00 0.00 0.00 76 1010.7
20260506035011 15 154 12.9 33.8 0.00 0.00 0.00 76 1010.8
20260506033505 14 221 14.5 32.2 0.00 0.00 0.00 75 1010.7
20260506033005 15 202 14.5 32.2 0.00 0.00 0.00 74 1010.6
20260506032506 15 150 12.9 41.8 0.00 0.00 0.00 74 1010.7
20260506032028 15 150 12.9 41.8 0.00 0.00 0.00 74 1010.6
20260506031004 15 179 12.9 37.0 0.00 0.00 0.00 73 1010.4
20260506030518 15 236 12.9 37.0 0.00 0.00 0.00 73 1010.4
20260506030024 15 112 12.9 32.2 0.00 0.00 0.00 72 1010.4
20260506025512 15 188 12.9 37.0 0.00 0.00 0.00 71 1010.5
20260506024011 14 189 12.9 33.8 0.00 0.00 0.00 71 1010.3
20260506023503 14 169 16.1 33.8 0.00 0.00 0.00 70 1010.3
20260506023003 14 177 14.5 35.4 0.00 0.00 0.00 70 1010.1
20260506022523 14 119 12.9 35.4 0.00 0.00 0.00 70 1010.1
20260506022010 14 211 12.9 33.8 0.00 0.00 0.00 69 1010.1
20260506021503 14 161 12.9 33.8 0.00 0.00 0.00 69 1010.3
20260506021004 14 94 11.3 32.2 0.00 0.00 0.00 68 1010.3
20260506020530 14 175 12.9 33.8 0.00 0.00 0.00 68 1010.3
20260506014503 15 151 12.9 32.2 0.00 0.00 0.00 67 1010.4
20260506014001 15 183 14.5 32.2 0.00 0.00 0.00 67 1010.5
20260506013509 15 160 14.5 41.8 0.00 0.00 0.00 67 1010.3
20260506013005 15 183 14.5 41.8 0.00 0.00 0.00 67 1010.3
20260506012513 15 190 12.9 40.2 0.00 0.00 0.00 67 1010.1
20260506012023 15 169 12.9 33.8 0.00 0.00 0.00 67 1010.1
20260506011503 15 148 12.9 33.8 0.00 0.00 0.00 67 1010.1
20260506011010 15 175 14.5 38.6 0.00 0.00 0.00 66 1010.2
20260506010501 15 188 14.5 38.6 0.00 0.00 0.00 66 1010.0
20260506010012 15 143 12.9 29.0 0.00 0.00 0.00 66 1009.9
20260506005510 15 196 12.9 33.8 0.00 0.00 0.00 66 1010.0
20260506005004 15 175 11.3 33.8 0.00 0.00 0.00 65 1010.0
20260506004504 15 180 11.3 35.4 0.00 0.00 0.00 65 1009.9
20260506003500 15 126 16.1 45.1 0.00 0.00 0.00 65 1009.5
20260506003009 15 167 14.5 35.4 0.00 0.00 0.00 65 1009.7
20260506002500 15 157 12.9 43.5 0.00 0.00 0.00 65 1009.3
20260506002001 15 182 12.9 43.5 0.00 0.00 0.00 65 1009.4
20260506001506 15 238 12.9 40.2 0.00 0.00 0.00 65 1009.3
20260506001005 15 18 14.5 40.2 0.00 0.00 0.00 65 1008.9
20260506000502 15 205 12.9 37.0 0.00 0.00 0.00 66 1008.9
20260506000008 15 172 12.9 30.6 0.00 0.00 0.00 66 1008.7
20260505235459 15 178 12.9 30.6 0.00 0.00 0.00 66 1008.7
20260505235031 15 116 11.3 22.5 0.00 0.00 0.00 66 1008.6
20260505234501 15 192 12.9 37.0 0.00 0.00 0.00 66 1008.6
20260505234006 15 172 12.9 37.0 0.00 0.00 0.00 66 1008.5
20260505233508 15 220 11.3 33.8 0.00 0.00 0.00 65 1008.4
20260505233002 16 159 12.9 33.8 0.00 0.00 0.00 65 1008.1
20260505232504 16 148 12.9 35.4 0.00 0.00 0.00 65 1008.1
20260505232032 16 134 12.9 35.4 0.00 0.00 0.00 64 1008.2
20260505231512 16 207 11.3 38.6 0.00 0.00 0.00 64 1008.3
20260505231031 16 184 14.5 38.6 0.00 0.00 0.00 63 1008.2
20260505230503 16 192 14.5 43.5 0.00 0.00 0.00 63 1008.2
20260505225506 16 178 14.5 37.0 0.00 0.00 0.00 61 1008.1
20260505225000 16 201 16.1 33.8 0.00 0.00 0.00 61 1008.2
20260505224608 16 169 16.1 38.6 0.00 0.00 0.00 60 1007.9
20260505224006 17 198 16.1 41.8 0.00 0.00 0.00 59 1008.0
20260505223500 17 175 16.1 41.8 0.00 0.00 0.00 59 1007.9
20260505223027 17 99 16.1 41.8 0.00 0.00 0.00 59 1007.9
20260505222504 17 168 14.5 41.8 0.00 0.00 0.00 59 1007.8
20260505221020 17 246 11.3 30.6 0.00 0.00 0.00 61 1007.6
20260505220506 17 157 12.9 41.8 0.00 0.00 0.00 62 1007.5
20260505220007 17 142 14.5 41.8 0.00 0.00 0.00 62 1007.6
20260505215517 17 172 14.5 41.8 0.00 0.00 0.00 62 1007.6
20260505214513 17 189 14.5 30.6 0.00 0.00 0.00 63 1007.4
20260505214005 17 134 14.5 40.2 0.00 0.00 0.00 61 1007.2
20260505213507 17 161 12.9 40.2 0.00 0.00 0.00 61 1007.5
20260505213000 17 97 12.9 32.2 0.00 0.00 0.00 61 1007.3
20260505212500 17 170 12.9 30.6 0.00 0.00 0.00 60 1007.1
20260505212001 18 152 12.9 32.2 0.00 0.00 0.00 59 1007.0
20260505211502 18 178 12.9 37.0 0.00 0.00 0.00 59 1007.0
20260505211009 18 169 12.9 37.0 0.00 0.00 0.00 57 1007.1
20260505210459 18 198 12.9 35.4 0.00 0.00 0.00 57 1007.1
20260505210006 18 71 12.9 35.4 0.00 0.00 0.00 57 1007.1
20260505205503 19 151 11.3 29.0 0.00 0.00 0.00 57 1007.1
20260505205025 19 154 11.3 32.2 0.00 0.00 0.00 56 1007.1
20260505204500 19 141 16.1 40.2 0.00 0.00 0.00 57 1007.1
20260505203459 18 202 16.1 46.7 0.00 0.00 0.00 57 1007.0
20260505203000 18 225 16.1 46.7 0.00 0.00 0.00 57 1007.0
20260505202459 19 202 14.5 40.2 0.00 0.00 0.00 57 1007.0
20260505202000 19 131 12.9 40.2 0.00 0.00 0.00 57 1007.1
20260505201459 20 134 14.5 45.1 0.00 0.00 0.00 57 1007.2
20260505201000 19 154 14.5 45.1 0.00 0.00 0.00 58 1007.2
20260505200500 19 97 14.5 49.9 0.00 0.00 0.00 56 1007.2
20260505200000 19 206 14.5 49.9 0.00 0.00 0.00 59 1007.3
20260505195500 20 192 12.9 30.6 0.00 0.00 0.00 57 1007.3
20260505195005 20 209 12.9 33.8 0.00 0.00 0.00 57 1007.4
20260505194459 20 80 14.5 33.8 0.00 0.00 0.00 56 1007.4
20260505193459 20 165 16.1 45.1 0.00 0.00 0.00 56 1007.4
20260505193305 20 138 14.5 45.1 0.00 0.00 0.00 56 1007.5
20260505173000 21 148 12.9 29.0 0.00 0.00 0.00 58 1008.5
20260505172459 20 146 14.5 33.8 0.00 0.00 0.00 57 1008.7
20260505171959 20 126 16.1 33.8 0.00 0.00 0.00 58 1008.7
20260505171459 20 186 14.5 29.0 0.00 0.00 0.00 56 1008.6
20260505170959 21 130 14.5 29.0 0.00 0.00 0.00 57 1008.8
20260505170459 21 205 14.5 30.6 0.00 0.00 0.00 55 1008.9
20260505165458 20 133 14.5 33.8 0.00 0.00 0.00 58 1009.1
20260505164959 20 171 14.5 32.2 0.00 0.00 0.00 59 1009.1
20260505164459 20 116 14.5 29.0 0.00 0.00 0.00 58 1009.0
20260505164001 20 262 14.5 29.0 0.00 0.00 0.00 57 1009.0
20260505163459 20 133 16.1 37.0 0.00 0.00 0.00 59 1009.0
20260505163000 20 130 16.1 37.0 0.00 0.00 0.00 59 1009.0
20260505162000 19 156 16.1 30.6 0.00 0.00 0.00 59 1009.0
20260505161459 20 143 14.5 30.6 0.00 0.00 0.00 58 1009.1
20260505161000 20 106 14.5 32.2 0.00 0.00 0.00 58 1009.1
20260505160458 20 140 16.1 32.2 0.00 0.00 0.00 59 1009.2
20260505152959 20 161 12.9 30.6 0.00 0.00 0.00 59 1009.2
20260505152459 20 167 12.9 25.7 0.00 0.00 0.00 58 1009.3
20260505152000 20 146 12.9 29.0 0.00 0.00 0.00 58 1009.3
20260505151500 20 130 14.5 29.0 0.00 0.00 0.00 60 1009.3
20260505140459 20 143 9.7 24.1 0.00 0.00 0.00 59 1009.2
20260505124524 16 216 9.7 29.0 0.00 0.00 0.00 66 1009.5
20260505123459 16 180 11.3 25.7 0.00 0.00 0.00 70 1009.3
20260505123009 15 150 9.7 24.1 0.00 0.00 0.00 71 1009.2
20260505122502 15 173 11.3 25.7 0.00 0.00 0.00 71 1009.3
20260505122005 15 136 11.3 25.7 0.00 0.00 0.00 72 1009.4
20260505121505 15 188 11.3 33.8 0.00 0.00 0.00 71 1009.4
20260505121000 15 196 11.3 33.8 0.00 0.00 0.00 72 1009.4
20260505120006 15 136 9.7 30.6 0.00 0.00 0.00 73 1009.3
20260505115503 15 163 8.0 20.9 0.00 0.00 0.00 74 1009.4
20260505115032 14 178 8.0 19.3 0.00 0.00 0.00 75 1009.4
20260505114002 13 143 9.7 24.1 0.00 0.00 0.00 77 1009.4
20260505113534 13 120 9.7 24.1 0.00 0.00 0.00 78 1009.4
20260505113008 13 109 9.7 35.4 0.00 0.00 0.00 78 1009.4
20260505112515 13 124 9.7 35.4 0.00 0.00 0.00 79 1009.5
20260505112033 12 173 9.7 25.7 0.00 0.00 0.00 79 1009.6
20260505111002 12 132 8.0 17.7 0.00 0.00 0.00 81 1009.4
20260505110510 12 139 8.0 19.3 0.00 0.00 0.00 82 1009.5
20260505102013 11 132 8.0 24.1 0.00 0.00 0.00 84 1009.4
20260505101501 11 259 9.7 24.1 0.00 0.00 0.00 84 1009.4
20260505100959 10 155 8.0 19.3 0.00 0.00 0.00 84 1009.4
20260505095534 10 175 8.0 19.3 0.00 0.00 0.00 84 1009.4
20260505095021 10 127 8.0 19.3 0.00 0.00 0.00 85 1009.4
20260505094505 10 157 6.4 17.7 0.00 0.00 0.00 85 1009.4
20260505094038 10 155 6.4 20.9 0.00 0.00 0.00 85 1009.4
20260505093516 10 144 8.0 20.9 0.00 0.00 0.00 85 1009.4